sat.trackr.live / text

‹ back to catalog

STARLINK-3088

NORAD 49163 · 2021-082AK

PAYLOAD ACTIVE UNKNOWN

§ Identity

Operator
Country
US
Launch date
2021-09-14
Launch site
AFWTR
Launch vehicle
Mass (kg)
RCS (m²)

Purposes: comms

External: N2YO · Heavens-Above · Gunter

§ Orbital elements

Epoch: 2026-09-20T02:10:10.751808Z

Period
96.16 min
Inclination
69.9982°
Eccentricity
0.0003011
Mean motion
14.97521981 rev/d
Perigee alt
572.5 km
Apogee alt
576.6 km
Semi-major
6,952.7 km
B*
4.7585e-5
RAAN
145.7041°
Arg perigee
270.9526°
Mean anomaly
89.1288°
Rev number
27,671

§ Raw data

STARLINK-30881 49163U 21082AK  26263.09040222  .00000464  00000+0  47585-4 0  99902 49163  69.9982 145.7041 0003011 270.9526  89.1288 14.97521981276712

JSON: /api/v1/satellites/49163 · /tle

For live sub-satellite position, see the globe view (requires WebGL).

§ Visibility from observer

Set your observer location to see the next 7 days of passes ≥ 10°. The values pass through the URL so the page stays shareable.

No JS? Fill the form by hand. The geolocation button needs JavaScript.